| time (UTC) | temp C | wind direction | speed KPH | gust KPH | rain 1hr cm | rain 24hr cm | rain mn cm | humidity % | barometer mb |
| 20260506194840 | 17 | 210 | 0.0 | 0.0 | 0.00 | 0.00 | 0.00 | 72 | 1013.4 |
| 20260506194330 | 17 | 209 | 0.0 | 0.0 | 0.00 | 0.00 | 0.00 | 72 | 1013.4 |
| 20260506193832 | 17 | 209 | 0.0 | 0.0 | 0.00 | 0.00 | 0.00 | 72 | 1013.4 |
| 20260506193340 | 17 | 209 | 0.0 | 0.0 | 0.00 | 0.00 | 0.00 | 72 | 1013.2 |
| 20260506192845 | 17 | 198 | 0.0 | 0.0 | 0.00 | 0.00 | 0.00 | 71 | 1013.2 |
| 20260506192336 | 17 | 198 | 0.0 | 0.0 | 0.00 | 0.00 | 0.00 | 71 | 1013.2 |
| 20260506191842 | 17 | 198 | 0.0 | 0.0 | 0.00 | 0.00 | 0.00 | 71 | 1013.1 |
| 20260506191332 | 17 | 198 | 0.0 | 0.0 | 0.00 | 0.00 | 0.00 | 71 | 1013.0 |
| 20260506190838 | 17 | 198 | 0.0 | 0.0 | 0.00 | 0.00 | 0.00 | 70 | 1013.0 |
| 20260506190348 | 17 | 198 | 0.0 | 0.0 | 0.00 | 0.00 | 0.00 | 70 | 1012.9 |
| 20260506185843 | 17 | 198 | 0.0 | 0.0 | 0.00 | 0.61 | 0.00 | 70 | 1012.9 |
| 20260506184841 | 17 | 198 | 1.6 | 6.4 | 0.00 | 0.61 | 0.00 | 69 | 1012.8 |
| 20260506184331 | 17 | 198 | 1.6 | 11.3 | 0.00 | 0.61 | 0.00 | 69 | 1012.7 |
| 20260506183330 | 17 | 188 | 3.2 | 11.3 | 0.00 | 0.61 | 0.00 | 68 | 1012.6 |
| 20260506182835 | 18 | 186 | 4.8 | 11.3 | 0.00 | 0.61 | 0.00 | 68 | 1012.6 |
| 20260506182347 | 18 | 194 | 4.8 | 9.7 | 0.00 | 0.61 | 0.00 | 68 | 1012.5 |
| 20260506181346 | 18 | 192 | 6.4 | 11.3 | 0.00 | 0.61 | 0.00 | 68 | 1012.5 |
| 20260506180830 | 18 | 169 | 6.4 | 11.3 | 0.00 | 0.61 | 0.00 | 67 | 1012.5 |
| 20260506180329 | 18 | 184 | 3.2 | 12.9 | 0.00 | 0.61 | 0.00 | 67 | 1012.4 |
| 20260506175843 | 18 | 171 | 6.4 | 12.9 | 0.00 | 0.61 | 0.00 | 67 | 1012.3 |
| 20260506175337 | 18 | 144 | 8.0 | 12.9 | 0.00 | 0.61 | 0.00 | 66 | 1012.3 |
| 20260506174843 | 18 | 184 | 6.4 | 12.9 | 0.00 | 0.61 | 0.00 | 66 | 1012.3 |
| 20260506174334 | 18 | 153 | 8.0 | 12.9 | 0.00 | 0.61 | 0.00 | 66 | 1012.2 |
| 20260506173843 | 18 | 182 | 4.8 | 11.3 | 0.00 | 0.61 | 0.00 | 66 | 1012.1 |
| 20260506173333 | 18 | 178 | 6.4 | 11.3 | 0.00 | 0.61 | 0.00 | 65 | 1012.2 |
| 20260506172838 | 19 | 163 | 3.2 | 12.9 | 0.00 | 0.61 | 0.00 | 64 | 1012.2 |
| 20260506172331 | 19 | 184 | 0.0 | 0.0 | 0.00 | 0.61 | 0.00 | 64 | 1012.1 |
| 20260506171837 | 19 | 183 | 0.0 | 0.0 | 0.00 | 0.61 | 0.00 | 64 | 1012.1 |
| 20260506171330 | 19 | 196 | 0.0 | 0.0 | 0.00 | 0.61 | 0.00 | 63 | 1012.1 |
| 20260506170349 | 19 | 204 | 0.0 | 0.0 | 0.00 | 0.61 | 0.00 | 64 | 1012.2 |
| 20260506165844 | 18 | 204 | 0.0 | 0.0 | 0.00 | 0.61 | 0.00 | 64 | 1012.2 |
| 20260506165335 | 18 | 196 | 0.0 | 0.0 | 0.00 | 0.61 | 0.00 | 64 | 1012.2 |
| 20260506164334 | 18 | 188 | 0.0 | 0.0 | 0.00 | 0.61 | 0.00 | 65 | 1012.3 |
| 20260506163331 | 18 | 186 | 0.0 | 0.0 | 0.00 | 0.61 | 0.00 | 64 | 1012.5 |
| 20260506162836 | 18 | 186 | 0.0 | 0.0 | 0.00 | 0.61 | 0.00 | 64 | 1012.5 |
| 20260506162348 | 18 | 180 | 0.0 | 12.9 | 0.00 | 0.61 | 0.00 | 64 | 1012.5 |
| 20260506161830 | 18 | 180 | 4.8 | 14.5 | 0.00 | 0.61 | 0.00 | 64 | 1012.5 |
| 20260506161341 | 18 | 167 | 6.4 | 14.5 | 0.00 | 0.61 | 0.00 | 63 | 1012.5 |
| 20260506160339 | 19 | 175 | 4.8 | 14.5 | 0.00 | 0.61 | 0.00 | 61 | 1012.5 |
| 20260506155834 | 19 | 209 | 3.2 | 16.1 | 0.00 | 0.61 | 0.00 | 61 | 1012.5 |
| 20260506155347 | 19 | 151 | 6.4 | 12.9 | 0.00 | 0.61 | 0.00 | 61 | 1012.5 |
| 20260506154833 | 19 | 167 | 0.0 | 8.0 | 0.00 | 0.61 | 0.00 | 60 | 1012.6 |
| 20260506154345 | 19 | 204 | 0.0 | 11.3 | 0.00 | 0.61 | 0.00 | 59 | 1012.7 |
| 20260506153848 | 19 | 198 | 6.4 | 12.9 | 0.00 | 0.61 | 0.00 | 60 | 1012.7 |
| 20260506153339 | 19 | 179 | 6.4 | 12.9 | 0.00 | 0.61 | 0.00 | 58 | 1012.8 |
| 20260506152845 | 19 | 192 | 6.4 | 14.5 | 0.00 | 0.61 | 0.00 | 55 | 1012.8 |
| 20260506152336 | 19 | 192 | 8.0 | 14.5 | 0.00 | 0.61 | 0.00 | 55 | 1012.7 |
| 20260506151840 | 19 | 167 | 3.2 | 12.9 | 0.00 | 0.61 | 0.00 | 55 | 1012.7 |
| 20260506151332 | 19 | 163 | 4.8 | 12.9 | 0.00 | 0.61 | 0.00 | 55 | 1012.7 |
| 20260506150840 | 19 | 178 | 6.4 | 12.9 | 0.00 | 0.61 | 0.00 | 55 | 1012.8 |
| 20260506150333 | 19 | 185 | 6.4 | 12.9 | 0.00 | 0.61 | 0.00 | 59 | 1012.8 |
| 20260506145831 | 19 | 199 | 8.0 | 12.9 | 0.00 | 0.61 | 0.00 | 59 | 1012.8 |
| 20260506145343 | 19 | 169 | 8.0 | 16.1 | 0.00 | 0.61 | 0.00 | 58 | 1012.8 |
| 20260506143835 | 19 | 172 | 6.4 | 16.1 | 0.00 | 0.61 | 0.00 | 60 | 1012.8 |
| 20260506143346 | 19 | 167 | 8.0 | 16.1 | 0.00 | 0.61 | 0.00 | 59 | 1012.9 |
| 20260506142831 | 19 | 163 | 8.0 | 16.1 | 0.00 | 0.61 | 0.00 | 60 | 1012.9 |
| 20260506142341 | 19 | 88 | 8.0 | 14.5 | 0.00 | 0.61 | 0.00 | 60 | 1013.0 |
| 20260506141343 | 19 | 170 | 8.0 | 14.5 | 0.00 | 0.61 | 0.00 | 60 | 1013.0 |
| 20260506140832 | 20 | 133 | 8.0 | 14.5 | 0.00 | 0.61 | 0.00 | 58 | 1013.0 |
| 20260506140344 | 20 | 155 | 3.2 | 12.9 | 0.00 | 0.61 | 0.00 | 60 | 1013.1 |
| 20260506135840 | 19 | 178 | 6.4 | 16.1 | 0.00 | 0.61 | 0.00 | 59 | 1013.1 |
| 20260506134841 | 19 | 102 | 8.0 | 17.7 | 0.00 | 0.61 | 0.00 | 59 | 1013.2 |
| 20260506134331 | 20 | 140 | 6.4 | 14.5 | 0.00 | 0.61 | 0.00 | 55 | 1013.1 |
| 20260506133836 | 20 | 132 | 8.0 | 16.1 | 0.00 | 0.61 | 0.00 | 55 | 1013.2 |
| 20260506133331 | 20 | 150 | 6.4 | 12.9 | 0.00 | 0.61 | 0.00 | 53 | 1013.1 |
| 20260506132838 | 20 | 152 | 6.4 | 12.9 | 0.00 | 0.61 | 0.00 | 52 | 1013.0 |
| 20260506132330 | 20 | 182 | 0.0 | 11.3 | 0.00 | 0.61 | 0.00 | 51 | 1013.1 |
| 20260506131836 | 20 | 180 | 4.8 | 12.9 | 0.00 | 0.61 | 0.00 | 51 | 1013.0 |
| 20260506131346 | 20 | 150 | 3.2 | 14.5 | 0.00 | 0.61 | 0.00 | 53 | 1013.1 |
| 20260506130833 | 20 | 161 | 8.0 | 17.7 | 0.00 | 0.61 | 0.00 | 52 | 1013.1 |
| 20260506130345 | 20 | 122 | 8.0 | 17.7 | 0.00 | 0.61 | 0.00 | 52 | 1013.2 |
| 20260506125840 | 20 | 144 | 6.4 | 17.7 | 0.00 | 0.61 | 0.00 | 53 | 1013.1 |
| 20260506125332 | 20 | 163 | 8.0 | 17.7 | 0.00 | 0.61 | 0.00 | 52 | 1013.2 |
| 20260506124840 | 20 | 156 | 4.8 | 16.1 | 0.00 | 0.61 | 0.00 | 53 | 1013.3 |
| 20260506123841 | 20 | 157 | 6.4 | 16.1 | 0.00 | 0.61 | 0.00 | 52 | 1013.3 |
| 20260506123333 | 20 | 140 | 8.0 | 14.5 | 0.00 | 0.61 | 0.00 | 51 | 1013.3 |
| 20260506122839 | 20 | 143 | 6.4 | 11.3 | 0.00 | 0.61 | 0.00 | 51 | 1013.4 |
| 20260506121836 | 20 | 113 | 8.0 | 17.7 | 0.00 | 0.61 | 0.00 | 50 | 1013.4 |
| 20260506121328 | 20 | 144 | 6.4 | 16.1 | 0.00 | 0.61 | 0.00 | 50 | 1013.4 |
| 20260506120837 | 20 | 153 | 8.0 | 20.9 | 0.00 | 0.61 | 0.00 | 51 | 1013.4 |
| 20260506120330 | 20 | 125 | 8.0 | 20.9 | 0.00 | 0.61 | 0.00 | 51 | 1013.4 |
| 20260506115335 | 20 | 143 | 12.9 | 19.3 | 0.00 | 0.61 | 0.00 | 51 | 1013.5 |
| 20260506114333 | 20 | 61 | 3.2 | 20.9 | 0.00 | 0.61 | 0.00 | 52 | 1013.7 |
| 20260506113840 | 19 | 105 | 8.0 | 20.9 | 0.00 | 0.61 | 0.00 | 52 | 1013.6 |
| 20260506113333 | 20 | 66 | 6.4 | 19.3 | 0.00 | 0.61 | 0.00 | 52 | 1013.7 |
| 20260506112838 | 20 | 155 | 12.9 | 17.7 | 0.00 | 0.61 | 0.00 | 52 | 1013.7 |
| 20260506112332 | 20 | 46 | 0.0 | 12.9 | 0.00 | 0.61 | 0.00 | 51 | 1013.8 |
| 20260506111838 | 20 | 130 | 6.4 | 16.1 | 0.00 | 0.61 | 0.00 | 51 | 1013.8 |
| 20260506110838 | 19 | 68 | 0.0 | 11.3 | 0.00 | 0.61 | 0.00 | 52 | 1013.9 |
| 20260506105845 | 18 | 161 | 8.0 | 16.1 | 0.00 | 0.61 | 0.00 | 54 | 1013.9 |
| 20260506105336 | 18 | 135 | 6.4 | 16.1 | 0.00 | 0.61 | 0.00 | 55 | 1014.0 |
| 20260506104840 | 18 | 59 | 8.0 | 12.9 | 0.00 | 0.61 | 0.00 | 54 | 1014.0 |
| 20260506104332 | 18 | 152 | 6.4 | 14.5 | 0.00 | 0.61 | 0.00 | 54 | 1014.0 |
| 20260506103839 | 18 | 148 | 4.8 | 14.5 | 0.00 | 0.61 | 0.00 | 55 | 1014.1 |
| 20260506102333 | 18 | 151 | 0.0 | 11.3 | 0.00 | 0.61 | 0.00 | 54 | 1014.1 |
| 20260506101838 | 18 | 167 | 3.2 | 12.9 | 0.00 | 0.61 | 0.00 | 55 | 1014.1 |
| 20260506101330 | 18 | 152 | 4.8 | 14.5 | 0.00 | 0.61 | 0.00 | 56 | 1014.2 |
| 20260506100833 | 18 | 149 | 4.8 | 11.3 | 0.00 | 0.61 | 0.00 | 57 | 1014.2 |
| 20260506095844 | 18 | 136 | 8.0 | 14.5 | 0.00 | 0.61 | 0.00 | 57 | 1014.3 |
| 20260506095336 | 18 | 159 | 6.4 | 14.5 | 0.00 | 0.61 | 0.00 | 57 | 1014.3 |
| 20260506094842 | 18 | 155 | 9.7 | 14.5 | 0.00 | 0.61 | 0.00 | 56 | 1014.3 |
| 20260506094333 | 18 | 115 | 4.8 | 11.3 | 0.00 | 0.61 | 0.00 | 56 | 1014.3 |
| 20260506093332 | 19 | 66 | 0.0 | 0.0 | 0.00 | 0.61 | 0.00 | 50 | 1014.2 |
| 20260506092840 | 19 | 27 | 0.0 | 0.0 | 0.00 | 0.61 | 0.00 | 50 | 1014.2 |
| 20260506092331 | 19 | 26 | 0.0 | 0.0 | 0.00 | 0.61 | 0.00 | 50 | 1014.2 |
| 20260506091346 | 19 | 218 | 0.0 | 0.0 | 0.00 | 0.61 | 0.00 | 52 | 1014.2 |
| 20260506090832 | 18 | 292 | 0.0 | 0.0 | 0.00 | 0.61 | 0.00 | 51 | 1014.3 |
| 20260506090344 | 18 | 347 | 0.0 | 0.0 | 0.00 | 0.61 | 0.00 | 53 | 1014.2 |
| 20260506084837 | 18 | 273 | 3.2 | 11.3 | 0.00 | 0.61 | 0.00 | 53 | 1014.2 |
| 20260506084348 | 18 | 319 | 1.6 | 9.7 | 0.00 | 0.61 | 0.00 | 54 | 1014.3 |
| 20260506083349 | 18 | 357 | 4.8 | 14.5 | 0.00 | 0.61 | 0.00 | 55 | 1014.1 |
| 20260506082837 | 18 | 26 | 9.7 | 14.5 | 0.00 | 0.61 | 0.00 | 55 | 1014.1 |
| 20260506082348 | 17 | 325 | 6.4 | 12.9 | 0.00 | 0.61 | 0.00 | 55 | 1014.1 |
| 20260506081832 | 17 | 267 | 3.2 | 12.9 | 0.00 | 0.61 | 0.00 | 56 | 1014.0 |
| 20260506081343 | 17 | 357 | 0.0 | 12.9 | 0.00 | 0.61 | 0.00 | 56 | 1014.0 |
| 20260506080832 | 17 | 13 | 8.0 | 12.9 | 0.00 | 0.61 | 0.00 | 56 | 1014.0 |
| 20260506080346 | 17 | 310 | 6.4 | 11.3 | 0.00 | 0.61 | 0.00 | 56 | 1014.0 |
| 20260506073339 | 16 | 24 | 6.4 | 12.9 | 0.00 | 0.61 | 0.00 | 58 | 1014.1 |
| 20260506072848 | 16 | 28 | 6.4 | 11.3 | 0.00 | 0.61 | 0.00 | 58 | 1014.1 |
| 20260506072339 | 16 | 335 | 4.8 | 9.7 | 0.00 | 0.61 | 0.00 | 59 | 1014.1 |
| 20260506071845 | 16 | 41 | 4.8 | 9.7 | 0.00 | 0.61 | 0.00 | 60 | 1014.0 |
| 20260506071335 | 16 | 41 | 0.0 | 14.5 | 0.00 | 0.61 | 0.00 | 62 | 1013.9 |
| 20260506070842 | 16 | 340 | 8.0 | 14.5 | 0.00 | 0.61 | 0.00 | 62 | 1013.9 |
| 20260506070333 | 16 | 329 | 6.4 | 14.5 | 0.00 | 0.61 | 0.00 | 62 | 1013.7 |
| 20260506062331 | 14 | 299 | 4.8 | 14.5 | 0.00 | 0.61 | 0.00 | 66 | 1013.5 |
| 20260506061839 | 14 | 338 | 8.0 | 14.5 | 0.00 | 0.61 | 0.00 | 66 | 1013.4 |
| 20260506061331 | 14 | 335 | 6.4 | 20.9 | 0.00 | 0.61 | 0.00 | 66 | 1013.4 |
| 20260506060840 | 14 | 336 | 9.7 | 20.9 | 0.00 | 0.61 | 0.00 | 66 | 1013.3 |
| 20260506060331 | 14 | 7 | 9.7 | 19.3 | 0.00 | 0.61 | 0.00 | 65 | 1013.3 |
| 20260506051347 | 13 | 344 | 9.7 | 19.3 | 0.00 | 0.61 | 0.00 | 70 | 1012.7 |
| 20260506050347 | 12 | 305 | 9.7 | 16.1 | 0.00 | 0.61 | 0.00 | 73 | 1012.7 |
| 20260506044339 | 11 | 2 | 4.8 | 14.5 | 0.00 | 0.61 | 0.00 | 78 | 1012.9 |
| 20260506043845 | 11 | 295 | 9.7 | 14.5 | 0.00 | 0.61 | 0.00 | 77 | 1012.9 |
| 20260506043338 | 12 | 287 | 8.0 | 14.5 | 0.00 | 0.61 | 0.00 | 77 | 1012.9 |
| 20260506042844 | 12 | 295 | 8.0 | 14.5 | 0.00 | 0.61 | 0.00 | 76 | 1012.9 |
| 20260506041842 | 12 | 300 | 9.7 | 16.1 | 0.00 | 0.61 | 0.00 | 75 | 1013.0 |
| 20260506041332 | 12 | 303 | 8.0 | 16.1 | 0.00 | 0.61 | 0.00 | 75 | 1012.9 |
| 20260506040840 | 12 | 277 | 8.0 | 16.1 | 0.00 | 0.61 | 0.00 | 74 | 1012.9 |
| 20260506040350 | 12 | 284 | 8.0 | 16.1 | 0.00 | 0.61 | 0.00 | 74 | 1012.9 |
| 20260506035849 | 12 | 296 | 6.4 | 14.5 | 0.00 | 0.61 | 0.00 | 74 | 1012.9 |
| 20260506035339 | 12 | 283 | 8.0 | 12.9 | 0.00 | 0.61 | 0.00 | 75 | 1013.0 |
| 20260506034845 | 12 | 286 | 6.4 | 14.5 | 0.00 | 0.61 | 0.00 | 75 | 1013.0 |
| 20260506034336 | 12 | 310 | 6.4 | 14.5 | 0.00 | 0.61 | 0.00 | 76 | 1013.0 |
| 20260506033840 | 12 | 313 | 4.8 | 16.1 | 0.00 | 0.61 | 0.00 | 76 | 1013.1 |
| 20260506033332 | 12 | 293 | 8.0 | 16.1 | 0.00 | 0.61 | 0.00 | 76 | 1013.2 |
| 20260506032839 | 12 | 265 | 8.0 | 12.9 | 0.00 | 0.61 | 0.00 | 75 | 1013.2 |
| 20260506031332 | 12 | 295 | 6.4 | 14.5 | 0.00 | 0.61 | 0.00 | 74 | 1013.2 |
| 20260506030836 | 12 | 294 | 6.4 | 14.5 | 0.00 | 0.61 | 0.00 | 74 | 1013.2 |
| 20260506030348 | 12 | 267 | 4.8 | 14.5 | 0.00 | 0.61 | 0.00 | 74 | 1013.1 |
| 20260506025336 | 12 | 288 | 9.7 | 14.5 | 0.00 | 0.61 | 0.00 | 74 | 1013.1 |
| 20260506024843 | 12 | 290 | 9.7 | 14.5 | 0.00 | 0.61 | 0.00 | 74 | 1013.0 |
| 20260506023842 | 13 | 318 | 8.0 | 12.9 | 0.00 | 0.61 | 0.00 | 73 | 1013.0 |
| 20260506023333 | 13 | 276 | 6.4 | 12.9 | 0.00 | 0.61 | 0.00 | 71 | 1013.0 |
| 20260506022837 | 13 | 303 | 8.0 | 17.7 | 0.00 | 0.61 | 0.00 | 72 | 1012.9 |
| 20260506021331 | 13 | 283 | 8.0 | 16.1 | 0.00 | 0.61 | 0.00 | 74 | 1013.0 |
| 20260506020838 | 13 | 293 | 9.7 | 16.1 | 0.00 | 0.61 | 0.00 | 73 | 1012.9 |
| 20260506020331 | 13 | 286 | 4.8 | 9.7 | 0.00 | 0.61 | 0.00 | 71 | 1013.0 |
| 20260506015848 | 13 | 344 | 3.2 | 9.7 | 0.00 | 0.61 | 0.00 | 70 | 1012.9 |
| 20260506015339 | 14 | 333 | 3.2 | 9.7 | 0.00 | 0.61 | 0.00 | 69 | 1013.0 |
| 20260506014845 | 14 | 325 | 3.2 | 11.3 | 0.00 | 0.61 | 0.00 | 68 | 1012.9 |
| 20260506014335 | 14 | 236 | 4.8 | 11.3 | 0.00 | 0.61 | 0.00 | 68 | 1013.0 |
| 20260506013842 | 14 | 306 | 4.8 | 11.3 | 0.00 | 0.61 | 0.00 | 68 | 1013.0 |
| 20260506013333 | 14 | 357 | 4.8 | 14.5 | 0.00 | 0.61 | 0.00 | 69 | 1013.0 |
| 20260506012837 | 14 | 321 | 3.2 | 14.5 | 0.00 | 0.61 | 0.00 | 69 | 1012.9 |
| 20260506012347 | 14 | 333 | 8.0 | 16.1 | 0.00 | 0.61 | 0.00 | 69 | 1012.8 |
| 20260506011834 | 14 | 333 | 6.4 | 16.1 | 0.00 | 0.61 | 0.00 | 70 | 1012.8 |
| 20260506011347 | 14 | 328 | 6.4 | 14.5 | 0.00 | 0.61 | 0.00 | 70 | 1012.8 |
| 20260506010833 | 14 | 318 | 6.4 | 17.7 | 0.00 | 0.61 | 0.00 | 70 | 1012.9 |
| 20260506010343 | 14 | 2 | 8.0 | 17.7 | 0.00 | 0.61 | 0.00 | 70 | 1012.9 |
| 20260506005842 | 14 | 310 | 8.0 | 14.5 | 0.00 | 0.61 | 0.00 | 71 | 1012.9 |
| 20260506004841 | 13 | 298 | 8.0 | 14.5 | 0.00 | 0.61 | 0.00 | 74 | 1012.9 |
| 20260506004332 | 13 | 311 | 6.4 | 16.1 | 0.00 | 0.61 | 0.00 | 75 | 1013.0 |
| 20260506003837 | 13 | 319 | 8.0 | 16.1 | 0.00 | 0.61 | 0.00 | 75 | 1013.0 |
| 20260506003348 | 14 | 314 | 4.8 | 12.9 | 0.00 | 0.61 | 0.00 | 75 | 1013.0 |
| 20260506002834 | 14 | 305 | 6.4 | 14.5 | 0.00 | 0.61 | 0.00 | 76 | 1013.0 |
| 20260506001835 | 13 | 329 | 6.4 | 12.9 | 0.00 | 0.61 | 0.00 | 77 | 1013.0 |
| 20260506001329 | 14 | 303 | 4.8 | 12.9 | 0.00 | 0.61 | 0.00 | 76 | 1013.0 |
| 20260506000832 | 14 | 319 | 4.8 | 16.1 | 0.00 | 0.61 | 0.00 | 76 | 1013.1 |
| 20260506000343 | 14 | 321 | 8.0 | 16.1 | 0.00 | 0.61 | 0.00 | 76 | 1013.1 |
| 20260505235332 | 13 | 337 | 6.4 | 16.1 | 0.00 | 0.61 | 0.00 | 78 | 1013.2 |
| 20260505234840 | 13 | 357 | 6.4 | 16.1 | 0.00 | 0.61 | 0.00 | 79 | 1013.2 |
| 20260505234333 | 13 | 300 | 6.4 | 12.9 | 0.00 | 0.61 | 0.00 | 80 | 1013.2 |
| 20260505233840 | 13 | 344 | 4.8 | 12.9 | 0.00 | 0.61 | 0.00 | 81 | 1013.3 |
| 20260505233331 | 13 | 353 | 4.8 | 14.5 | 0.00 | 0.61 | 0.00 | 82 | 1013.2 |
| 20260505232838 | 13 | 285 | 3.2 | 12.9 | 0.00 | 0.61 | 0.00 | 84 | 1013.3 |
| 20260505232332 | 13 | 317 | 3.2 | 12.9 | 0.00 | 0.61 | 0.00 | 84 | 1013.4 |
| 20260505231838 | 13 | 290 | 0.0 | 4.8 | 0.00 | 0.61 | 0.00 | 83 | 1013.5 |
| 20260505231330 | 13 | 321 | 0.0 | 3.2 | 0.00 | 0.61 | 0.00 | 83 | 1013.5 |
| 20260505230836 | 13 | 327 | 0.0 | 0.0 | 0.00 | 0.61 | 0.00 | 83 | 1013.5 |
| 20260505230346 | 13 | 326 | 0.0 | 0.0 | 0.00 | 0.61 | 0.00 | 82 | 1013.5 |
| 20260505225842 | 13 | 327 | 0.0 | 0.0 | 0.00 | 0.61 | 0.00 | 81 | 1013.5 |
| 20260505224331 | 14 | 327 | 0.0 | 1.6 | 0.00 | 0.61 | 0.00 | 80 | 1013.5 |
| 20260505223839 | 14 | 328 | 0.0 | 0.0 | 0.00 | 0.61 | 0.00 | 79 | 1013.4 |
| 20260505223331 | 14 | 328 | 0.0 | 4.8 | 0.00 | 0.61 | 0.00 | 79 | 1013.3 |
| 20260505222838 | 14 | 328 | 1.6 | 9.7 | 0.00 | 0.61 | 0.00 | 79 | 1013.4 |
| 20260505222331 | 14 | 303 | 1.6 | 9.7 | 0.00 | 0.61 | 0.00 | 79 | 1013.4 |
| 20260505221329 | 14 | 317 | 1.6 | 4.8 | 0.00 | 0.61 | 0.00 | 81 | 1013.5 |
| 20260505220836 | 14 | 307 | 1.6 | 3.2 | 0.00 | 0.61 | 0.00 | 81 | 1013.6 |
| 20260505220348 | 14 | 304 | 0.0 | 4.8 | 0.00 | 0.61 | 0.00 | 82 | 1013.7 |
| 20260505215840 | 14 | 304 | 1.6 | 8.0 | 0.00 | 0.61 | 0.13 | 83 | 1013.7 |
| 20260505215333 | 14 | 316 | 1.6 | 11.3 | 0.00 | 0.61 | 0.13 | 84 | 1013.7 |
| 20260505214838 | 13 | 324 | 4.8 | 14.5 | 0.00 | 0.61 | 0.13 | 85 | 1013.7 |
| 20260505214331 | 13 | 334 | 8.0 | 14.5 | 0.00 | 0.61 | 0.13 | 86 | 1013.8 |
| 20260505213832 | 13 | 348 | 6.4 | 19.3 | 0.00 | 0.61 | 0.13 | 87 | 1013.8 |
| 20260505213345 | 13 | 331 | 8.0 | 19.3 | 0.00 | 0.61 | 0.13 | 87 | 1013.8 |
| 20260505212848 | 13 | 334 | 6.4 | 12.9 | 0.00 | 0.61 | 0.13 | 87 | 1013.8 |
| 20260505211343 | 13 | 294 | 3.2 | 8.0 | 0.00 | 0.61 | 0.13 | 88 | 1013.7 |
| 20260505210341 | 13 | 280 | 3.2 | 11.3 | 0.00 | 0.61 | 0.13 | 88 | 1013.5 |
| 20260505205836 | 13 | 285 | 4.8 | 11.3 | 0.00 | 0.61 | 0.13 | 89 | 1013.4 |
| 20260505205329 | 13 | 285 | 3.2 | 9.7 | 0.00 | 0.61 | 0.13 | 90 | 1013.4 |
| 20260505204837 | 13 | 299 | 3.2 | 9.7 | 0.00 | 0.61 | 0.13 | 90 | 1013.3 |
| 20260505204329 | 13 | 299 | 3.2 | 6.4 | 0.00 | 0.61 | 0.13 | 90 | 1013.2 |
| 20260505202837 | 14 | 283 | 3.2 | 9.7 | 0.00 | 0.61 | 0.13 | 91 | 1013.0 |
| 20260505202347 | 14 | 273 | 3.2 | 12.9 | 0.00 | 0.61 | 0.13 | 90 | 1013.1 |
| 20260505201343 | 14 | 303 | 3.2 | 8.0 | 0.00 | 0.61 | 0.13 | 89 | 1013.0 |
| 20260505200836 | 14 | 272 | 1.6 | 3.2 | 0.00 | 0.61 | 0.13 | 89 | 1012.8 |
| 20260505200345 | 14 | 273 | 0.0 | 3.2 | 0.00 | 0.61 | 0.13 | 88 | 1012.6 |
| 20260505195838 | 14 | 276 | 1.6 | 3.2 | 0.00 | 0.61 | 0.13 | 88 | 1012.6 |